Location: Hohe Wand Kleine Kanzel
(47.8330°N, 16.0170°E)
Time: 07:23:05
(UTC+02:00)

Courier 1B Rocket - All Passes

Search period start: 01 August 2021 00:00
Search period end: 11 August 2021 00:00
Orbit: 920 x 1202 km, 28.2° (Epoch: 31 July)

Date Brightness Start Highest point End Pass type
(mag) Time Alt. Az. Time Alt. Az. Time Alt. Az.
01 Aug - 03:23:18 10° S 03:25:12 11° S 03:27:03 10° SSE visible
01 Aug - 05:15:16 10° SSW 05:17:14 11° S 05:19:09 10° S daylight
02 Aug - 02:23:59 10° S 02:24:34 10° SSE 02:25:08 10° SSE visible
02 Aug - 04:14:06 10° SSW 04:16:37 12° S 04:19:06 10° SSE visible
03 Aug - 03:13:16 10° SSW 03:15:59 13° S 03:18:40 10° SSE visible
03 Aug - 05:07:10 10° SSW 05:08:01 10° SSW 05:08:52 10° S daylight
04 Aug - 02:12:45 10° SSW 02:15:21 12° S 02:17:53 10° SSE visible
04 Aug - 04:05:02 10° SSW 04:07:26 12° S 04:09:46 10° SSE visible
05 Aug - 01:12:42 10° S 01:14:40 11° SSE 01:16:37 10° SSE night (unlit)
05 Aug - 03:03:46 10° SSW 03:06:47 13° S 03:09:44 10° SSE visible
06 Aug - 02:02:50 10° SSW 02:06:08 14° S 02:09:19 10° SSE visible
06 Aug - 03:56:32 10° SSW 03:58:12 11° SSW 03:59:51 10° S visible
07 Aug - 01:02:11 10° SSW 01:05:25 13° S 01:08:35 10° SE night (unlit)
07 Aug - 02:54:37 10° SW 02:57:34 13° S 03:00:26 10° SSE visible
08 Aug - 00:01:55 10° S 00:04:42 12° SSE 00:07:27 10° SE night (unlit)
08 Aug - 01:53:20 10° SW 01:56:53 14° S 02:00:20 10° SSE night (unlit)
08 Aug - 23:02:28 10° S 23:03:58 11° SSE 23:05:27 10° SSE visible
09 Aug - 00:52:21 10° SSW 00:56:10 15° S 00:59:53 10° SSE night (unlit)
09 Aug - 02:45:54 10° SW 02:48:18 12° SSW 02:50:39 10° S night (unlit)
09 Aug - 23:51:38 10° SSW 23:55:25 15° S 23:59:06 10° SE night (unlit)
10 Aug - 01:44:09 10° SW 01:47:38 14° S 01:51:01 10° SSE night (unlit)
10 Aug - 22:51:17 10° SSW 22:54:39 13° SSE 22:57:57 10° SE visible
